MIDDLE PEAK CA US current weather conditions

sailwx.info

Wind from 320 at 3 knots gusting 6

Air temperature 27.2° C
Dewpoint 5.5° C

Last reported at 2018-Sep-21 23:36 UTC.
Time now 2018-Sep-22 01:05 UTC

Location: N 37°56' W 122°35'.
View on Google Maps.

See reports from other nearby stations

  
Tides and Currents Weather Stations Pressure Air Temp Water Temp Dewpoint Dewpoint Depression Visibility Wind Speed Wind Dir Waves Ship Positions
date/time (UTC)wind fromknots sea level pressurealtimeterstation pressurevisibilityair tempwater tempwave heightnotes
2018-Sep-21 23:36 320 3 gusting 6 27.2
2018-Sep-21 22:36 319 3 gusting 6 27.8
2018-Sep-21 21:36 326 3 gusting 6 27.2
2018-Sep-21 20:36 27.2
2018-Sep-21 19:36 028 1 gusting 5 26.7
2018-Sep-21 18:36 168 2 gusting 6 26.7
2018-Sep-21 17:36 166 4 gusting 7 26.1
2018-Sep-21 16:36 150 4 gusting 6 25.0
2018-Sep-21 15:36 154 3 gusting 4 23.9
2018-Sep-21 14:36 240 2 gusting 6 22.8
2018-Sep-21 13:36 175 5 gusting 6 22.2
2018-Sep-21 12:36 173 4 gusting 6 22.2
2018-Sep-21 11:36 154 2 gusting 5 22.8
2018-Sep-21 10:36 345 2 gusting 6 22.2
2018-Sep-21 09:36 317 2 gusting 3 22.8
2018-Sep-21 08:36 326 3 gusting 6 23.3
2018-Sep-21 07:36 324 4 gusting 6 22.2
2018-Sep-21 06:36 313 3 gusting 8 22.2
2018-Sep-21 05:36 326 3 gusting 8 22.2
2018-Sep-21 04:36 308 5 gusting 15 21.7
2018-Sep-21 03:36 293 6 gusting 10 22.2
2018-Sep-21 02:36 281 4 gusting 6 22.8
2018-Sep-21 01:36 288 4 gusting 9 25.0
2018-Sep-21 00:36 287 5 gusting 8 26.7
2018-Sep-20 23:36 199 3 gusting 6 27.8
2018-Sep-20 22:36 175 3 gusting 6 27.2
2018-Sep-20 21:36 309 2 gusting 9 28.3
2018-Sep-20 20:36 075 4 gusting 8 27.2
2018-Sep-20 19:36 028 3 gusting 9 26.1
2018-Sep-20 18:36 061 4 gusting 10 25.6
2018-Sep-20 17:36 020 2 gusting 8 25.0
2018-Sep-20 16:36 018 4 gusting 12 23.3
2018-Sep-20 15:36 010 6 gusting 10 21.7
2018-Sep-20 14:36 356 6 gusting 13 20.6
2018-Sep-20 13:36 344 7 gusting 18 19.4
2018-Sep-20 12:36 339 11 gusting 18 20.0
2018-Sep-20 11:36 339 12 gusting 18 20.0
2018-Sep-20 10:36 345 11 gusting 15 20.0
2018-Sep-20 09:36 349 10 gusting 14 21.1
2018-Sep-20 08:36 334 8 gusting 13 18.9
2018-Sep-20 07:36 331 8 gusting 13 20.0
2018-Sep-20 06:36 333 10 gusting 13 19.4
2018-Sep-20 05:36 326 11 gusting 17 18.9
2018-Sep-20 04:36 334 12 gusting 15 20.0
2018-Sep-20 03:36 327 8 gusting 13 20.0
2018-Sep-20 02:36 316 7 gusting 10 19.4
2018-Sep-20 01:36 305 7 gusting 11 21.7